Flag for Saudi Arabia Weather past 2 weeks in Qatif, Saudi Arabia

Now
113 °F

Sunny.


Feels Like: 115 °F
Forecast: 89 / 108 °F
Wind: 3 mph from Southeast

Location: King Fahd International Airport

Current Time: Aug 3, 2015 at 2:41:58 PM

Latest Report: Aug 3, 2015 at 2:00 PM


Visibility: 10 mi

Pressure: 29.53 "Hg

Humidity: 19%

Dew point: 61 °F

Location of QatifLocation

Historic Weather in Qatif — Graph

°F

Qatif temperature yesterday

Maximum temperature yesterday: 111 °F (at 1:00 PM)
Minimum temperature yesterday: 86 °F (at 3:00 AM)
Average temperature yesterday: 99 °F

Past Weeks' High & Low Weather Summary

 TemperatureHumidityPressure
High118 °F (Jul 29, 1:00 PM)84% (Aug 3, 4:00 AM)29.62 "Hg (Aug 3, 4:00 AM)
Low84 °F (Jul 23, 3:00 AM)5% (Jul 19, 3:00 PM)29.33 "Hg (Jul 20, 3:00 PM)
Average100 °F31%29.45 "Hg
* Reported Jul 19 1:00 PM — Aug 3 1:00 PM, Qatif, Weather by CustomWeather, © 2015

Note: Actual official high and low records may vary slightly from our data, if they occured in-between our weather recording intervals... More about our weather records

Advertising

Qatif weather history for previous 24 hours

 ConditionsComfort  
Time TempWeatherWind HumidityBarometerVisibility
1:00 PM
Mon, Aug 3
111 °FSunny.5 mph13%29.53 "Hg10 mi
12:00 PM109 °FSunny.3 mph18%29.56 "Hg10 mi
11:00 AM106 °FSunny.2 mph23%29.56 "Hg5 mi
10:00 AM102 °FClear.5 mph29%29.59 "Hg5 mi
9:00 AM95 °FClear.9 mph60%29.59 "Hg4 mi
8:00 AM91 °FHaze.5 mph71%29.62 "Hg2 mi
7:00 AM88 °FPartly sunny.6 mph75%29.59 "Hg2 mi
6:00 AM84 °FFog.6 mph79%29.56 "Hg2 mi
5:00 AM84 °FFog.6 mph79%29.53 "Hg2 mi
4:00 AM84 °FFog.2 mph84%29.53 "Hg3 mi
3:00 AM86 °FClear.No wind75%29.53 "Hg4 mi
2:00 AM88 °FClear.5 mph75%29.53 "Hg5 mi
1:00 AM88 °FClear.3 mph66%29.53 "Hg5 mi
12:00 AM90 °FClear.6 mph63%29.53 "Hg5 mi
11:00 PM
Sun, Aug 2
91 °FClear.3 mph67%29.53 "Hg5 mi
10:00 PM93 °FClear.2 mph67%29.53 "Hg5 mi
9:00 PM93 °FClear.7 mph67%29.53 "Hg5 mi
8:00 PM95 °FClear.10 mph63%29.53 "Hg5 mi
7:00 PM99 °FClear.13 mph47%29.53 "Hg4 mi
6:00 PM104 °FSunny.13 mph29%29.50 "Hg10 mi
5:00 PM109 °FSunny.12 mph12%29.50 "Hg10 mi
4:00 PM109 °FSunny.14 mph14%29.50 "Hg10 mi
3:00 PM111 °FSunny.14 mph13%29.50 "Hg10 mi
2:00 PM111 °FSunny.12 mph14%29.53 "Hg10 mi
Weather by CustomWeather, © 2015

See weather overviewHow to use our weather pages